This demonstration page uses our WeatherBlox Daily Observations layout. Learn more.

Left ArrowRight Arrow

39.51506, -84.39828

Hourly Observations for January 28, 2021

Temp ( °F °C ) Dew Point ( °F °C ) Humidity (%) Winds ( mph kmh ) Pressure ( in mb ) Visibility ( mi km ) Precip ( " mm )
12:15 am 00:15 Cloudy 26 -3.2 18 -8 70 70 N 12 19 30.42 1030 10 16 N/A
12:35 am 00:35 Cloudy 26 -3.2 18 -8 70 70 N 12 19 30.43 1031 10 16 N/A
12:55 am 00:55 Cloudy 26 -3.2 17 -8.5 67 67 N 15 24 30.43 1031 10 16 N/A
1:15 am 01:15 Cloudy 26 -3.6 16 -9 67 67 N 10 17 30.45 1031 10 16 N/A
1:35 am 01:35 Cloudy 25 -4 14 -10.2 62 62 N 12 19 30.46 1031 10 16 N/A
1:55 am 01:55 Partly Cloudy 24 -4.4 14 -10.2 64 64 N 8 13 30.47 1032 10 16 N/A
2:15 am 02:15 Clear 24 -4.7 15 -9.5 69 69 N 8 13 30.48 1032 10 16 N/A
2:35 am 02:35 Clear 23 -5.1 15 -9.6 71 71 N 8 13 30.48 1032 10 16 N/A
2:55 am 02:55 Clear 22 -5.3 14 -9.8 71 71 N 7 11 30.48 1032 10 16 N/A
3:15 am 03:15 Clear 22 -5.5 14 -10 71 71 NNW 6 9 30.50 1033 10 16 N/A
3:35 am 03:35 Partly Cloudy 22 -5.8 14 -9.8 74 74 NW 6 9 30.50 1033 10 16 N/A
3:55 am 03:55 Mostly Cloudy 22 -5.7 15 -9.7 74 74 NW 5 7 30.51 1033 10 16 N/A
4:15 am 04:15 Cloudy 22 -5.3 15 -9.2 74 74 NNW 5 7 30.52 1034 10 16 N/A
4:35 am 04:35 Cloudy 23 -5.1 15 -9.2 73 73 N 5 7 30.52 1034 10 16 N/A
4:55 am 04:55 Cloudy 23 -5 16 -8.8 75 75 NNW 3 6 30.53 1034 10 16 N/A
5:15 am 05:15 Cloudy 23 -5.1 16 -8.9 75 75 N 3 6 30.53 1034 10 16 N/A
5:35 am 05:35 Cloudy 23 -5 17 -8.5 77 77 NW 5 7 30.54 1034 10 16 N/A
5:55 am 05:55 Cloudy 23 -5 17 -8.3 78 78 WNW 6 9 30.54 1034 10 16 N/A
6:15 am 06:15 Cloudy 23 -5 17 -8.1 79 79 WNW 6 9 30.55 1035 10 16 N/A
6:35 am 06:35 Cloudy 23 -5.1 17 -8.2 79 79 WNW 6 9 30.56 1035 10 16 N/A
6:55 am 06:55 Cloudy 22 -5.6 17 -8.5 80 80 WNW 5 7 30.56 1035 10 16 N/A
7:15 am 07:15 Cloudy 22 -5.8 17 -8.1 84 84 WNW 6 9 30.57 1035 10 16 N/A
7:35 am 07:35 Cloudy 23 -5.2 18 -7.8 82 82 WNW 7 11 30.58 1036 10 16 N/A
7:55 am 07:55 Cloudy 23 -4.8 17 -8.2 77 77 NW 6 9 30.59 1036 10 16 N/A
8:15 am 08:15 Cloudy 24 -4.4 16 -9 71 71 NNW 7 11 30.59 1036 10 16 N/A
8:35 am 08:35 Cloudy 24 -4.2 15 -9.2 68 68 NNW 9 15 30.60 1036 10 16 N/A
8:55 am 08:55 Cloudy 25 -4.1 15 -9.2 68 68 NNW 7 11 30.60 1036 10 16 N/A
9:15 am 09:15 Cloudy with Light Snow 25 -4.1 15 -9.5 66 66 N 9 15 30.61 1036 10 16 N/A
9:35 am 09:35 Cloudy with Light Snow 25 -3.9 15 -9.2 67 67 NNW 10 17 30.62 1037 10 16 N/A
9:55 am 09:55 Cloudy with Light Snow 25 -3.8 13 -10.6 60 60 N 12 19 30.62 1037 10 16 N/A
10:15 am 10:15 Cloudy 26 -3.3 12 -10.9 56 56 NNW 6 9 30.63 1037 10 16 N/A
10:35 am 10:35 Cloudy 26 -3.1 13 -10.6 57 57 NNW 9 15 30.63 1037 10 16 N/A
10:55 am 10:55 Cloudy 26 -3.3 12 -11 56 56 N 10 17 30.64 1037 10 16 N/A
11:15 am 11:15 Cloudy 27 -3 13 -10.5 57 57 WNW 12 19 30.65 1038 10 16 N/A
11:35 am 11:35 Cloudy 27 -2.9 13 -10.3 57 57 WNW 12 19 30.66 1038 10 16 N/A
11:55 am 11:55 Cloudy 27 -3 14 -9.9 59 59 NW 10 17 30.63 1037 10 16 N/A
12:15 pm 12:15 Cloudy 27 -2.6 14 -10 57 57 NNW 7 11 30.64 1038 10 16 N/A
12:35 pm 12:35 Cloudy 27 -2.7 12 -10.9 54 54 N 10 17 30.63 1037 10 16 N/A
12:55 pm 12:55 Cloudy 27 -2.6 13 -10.3 56 56 NNW 9 15 30.63 1037 10 16 N/A
1:15 pm 13:15 Cloudy 28 -2.5 13 -10.6 54 54 NNW 12 19 30.63 1037 10 16 N/A
1:35 pm 13:35 Cloudy 28 -2.1 13 -10.3 54 54 NNW 12 19 30.61 1037 10 16 N/A
1:55 pm 13:55 Cloudy 28 -2.2 13 -10.4 54 54 NNW 15 24 30.60 1036 10 16 N/A
2:15 pm 14:15 Cloudy 28 -2.1 14 -10.2 54 54 N 10 17 30.60 1036 10 16 N/A
2:35 pm 14:35 Cloudy 28 -2.1 14 -10.2 54 54 NW 13 20 30.62 1037 10 16 N/A
2:55 pm 14:55 Cloudy 29 -1.8 13 -10.3 53 53 NNW 9 15 30.61 1037 10 16 N/A
3:15 pm 15:15 Cloudy 28 -2 14 -9.9 55 55 NW 10 17 30.60 1036 10 16 N/A
3:35 pm 15:35 Cloudy 28 -2 14 -10.1 54 54 NNW 13 20 30.60 1036 10 16 N/A
3:55 pm 15:55 Cloudy 29 -1.7 13 -10.3 52 52 WNW 10 17 30.60 1036 10 16 N/A
4:15 pm 16:15 Cloudy 29 -1.8 14 -10 54 54 N 12 19 30.60 1036 10 16 N/A
4:35 pm 16:35 Cloudy 28 -2 14 -10.1 54 54 NW 9 15 30.60 1036 10 16 N/A
4:55 pm 16:55 Cloudy 28 -2 14 -10 55 55 NNW 9 15 30.60 1036 10 16 N/A
5:15 pm 17:15 Cloudy 28 -2 14 -10 55 55 NNW 6 9 30.61 1037 10 16 N/A
5:35 pm 17:35 Cloudy 28 -2.3 14 -9.9 56 56 NNW 7 11 30.60 1036 10 16 N/A
5:55 pm 17:55 Cloudy 28 -2.3 15 -9.6 58 58 NW 5 7 30.61 1037 10 16 N/A
6:15 pm 18:15 Cloudy 28 -2.2 15 -9.6 57 57 WNW 8 13 30.60 1036 10 16 N/A
6:35 pm 18:35 Cloudy 28 -2.3 15 -9.3 59 59 WNW 10 17 30.61 1037 10 16 N/A
6:55 pm 18:55 Cloudy 28 -2.5 15 -9.5 59 59 WNW 10 17 30.60 1036 10 16 N/A
7:15 pm 19:15 Cloudy 27 -2.6 15 -9.5 59 59 NW 5 7 30.60 1036 10 16 N/A
7:35 pm 19:35 Cloudy 27 -2.7 16 -9.1 62 62 WNW 3 6 30.60 1036 10 16 N/A
7:55 pm 19:55 Cloudy 27 -2.8 16 -9 63 63 WNW 3 6 30.59 1036 10 16 N/A
8:15 pm 20:15 Cloudy 27 -2.8 16 -8.7 64 64 N N/A 30.58 1036 10 16 N/A
8:35 pm 20:35 Cloudy 27 -2.8 16 -8.9 63 63 N N/A 30.59 1036 10 16 N/A
8:55 pm 20:55 Cloudy 27 -2.9 17 -8.5 66 66 N N/A 30.58 1036 10 16 N/A
9:15 pm 21:15 Cloudy 26 -3.1 18 -7.9 70 70 N N/A 30.58 1036 10 16 N/A
9:35 pm 21:35 Cloudy 26 -3.3 19 -7.4 74 74 N N/A 30.57 1035 10 16 N/A
9:55 pm 21:55 Cloudy 26 -3.3 18 -7.8 71 71 N N/A 30.57 1035 10 16 N/A
10:15 pm 22:15 Cloudy 26 -3.2 18 -7.6 72 72 N N/A 30.56 1035 10 16 N/A
10:35 pm 22:35 Cloudy 26 -3.5 19 -7 77 77 N N/A 30.57 1035 10 16 N/A
10:55 pm 22:55 Cloudy 26 -3.5 19 -7.3 75 75 N N/A 30.57 1035 10 16 N/A
11:15 pm 23:15 Mostly Cloudy 25 -3.9 20 -6.8 81 81 N N/A 30.57 1035 10 16 N/A
11:35 pm 23:35 Clear 24 -4.7 19 -7.1 84 84 N N/A 30.57 1035 10 16 N/A
11:55 pm 23:55 Clear 23 -5.1 19 -7.4 84 84 NW 6 9 30.57 1035 10 16 N/A

Powered by AerisWeather